Location: Fenn
(52.1430°N, 112.7440°W)
Time: 22:47:44
(UTC+00:00)

BlueWalker 3 - Visible Passes

Search period start: 05 October 2024 00:00
Search period end: 15 October 2024 00:00
Orbit: 473 x 485 km, 53.2° (Epoch: 05 October)

Date Brightness Start Highest point End Pass type
(mag) Time Alt. Az. Time Alt. Az. Time Alt. Az.
05 Oct 3.1 12:53:09 10° SW 12:56:37 39° SSE 13:00:05 10° E visible
06 Oct 3.1 12:25:07 10° SW 12:28:29 36° SSE 12:31:53 10° E visible
07 Oct 3.2 11:58:21 20° SSW 12:00:18 33° SSE 12:03:40 10° E visible
08 Oct 3.1 11:31:29 29° SSE 11:32:05 30° SE 11:35:22 10° E visible
08 Oct 1.8 13:06:06 10° WSW 13:09:49 88° SSE 13:13:32 10° ENE visible
09 Oct 3.6 11:04:30 26° SE 11:04:30 26° SE 11:07:02 10° E visible
09 Oct 1.8 12:38:42 16° WSW 12:41:31 85° SSE 12:45:14 10° ENE visible
10 Oct 4.4 10:37:25 17° E 10:37:25 17° E 10:38:40 10° E visible
10 Oct 1.8 12:11:37 32° WSW 12:13:11 81° SSE 12:16:54 10° ENE visible
11 Oct 1.7 11:44:27 67° SW 11:44:49 77° SSE 11:48:32 10° ENE visible
12 Oct 2.6 11:17:13 51° E 11:17:13 51° E 11:20:07 10° ENE visible
12 Oct 1.9 12:51:24 15° W 12:54:27 73° N 12:58:09 10° E visible
13 Oct 4.0 10:49:56 26° E 10:49:56 26° E 10:51:39 10° ENE visible
13 Oct 1.9 12:24:07 27° W 12:25:59 73° N 12:29:41 10° E visible
14 Oct 4.9 10:22:36 14° ENE 10:22:36 14° ENE 10:23:09 10° ENE visible
14 Oct 1.8 11:56:47 54° WNW 11:57:29 73° N 12:01:11 10° E visible
